Location: Cormont
(50.5693°N, 1.7416°E)
Time: 23:51:31
(UTC+00:00)

Meteor 2-10 - Pass Details

Date: 21 October 2019
Orbit: 738 x 869 km, 81.2° (Epoch: 17 November)

Event Time Altitude Azimuth Distance (km) Brightness Sun altitude
Rises 17:14:13 0° 169° (SSE) 3,182 7.2 -4.6°
Reaches altitude 10° 17:16:40 10° 162° (SSE) 2,253 6.4 -5.0°
Maximum altitude 17:21:21 40° 93° (E) 1,080 4.4 -5.7°
Drops below altitude 10° 17:26:02 10° 25° (NNE) 2,261 6.1 -6.5°
Sets 17:28:29 0° 18° (NNE) 3,194 6.9 -6.9°
